Hourly Data Report for July 03, 2021

PRINCE RUPERT
BRITISH COLUMBIA
Current Station Operator: NAVCAN

54°17'10.000" N
130°26'41.000" W
35.40 m
1066482
71022
YPR

Download Data

Hourly Data (July 2021)
Hourly Data Report for July 3, 2021
TIME
LST
Temp Definition
°C
Dew Point Definition
°C
Rel Hum Definition
%
Precip. Amount Definition
mm

Wind Dir Definition
10's deg

Wind Spd Definition
km/h
Visibility Definition
km
Stn Press Definition
kPa
Hmdx Definition


Wind Chill Definition


Weather Definition


00:00 11.0 10.1 94 0.0 28 8 16.1 101.78     LegendNANA
01:00 10.8 9.9 94 0.0 28 8 16.1 101.77     LegendNANA
02:00 10.9 10.0 94 0.0 31 8 16.1 101.76     LegendNANA
03:00 9.7 9.1 96 0.0 7 8 16.1 101.75     LegendNANA
04:00 9.6 9.1 96 0.0 7 8 16.1 101.72     LegendNANA
05:00 9.9 9.5 97 0.0 14 8 16.1 101.70     LegendNANA
06:00 10.9 10.5 97 0.0 15 5 16.1 101.69     LegendNANA
07:00 11.9 11.1 95 0.0 7 5 16.1 101.67     LegendNANA
08:00 13.0 11.4 90 0.0 LegendMM 4 16.1 101.66     LegendNANA
09:00 13.3 11.2 87 0.0 21 8 16.1 101.66     LegendNANA
10:00 14.7 11.7 82 0.0 24 11 16.1 101.63     LegendNANA
11:00 14.7 10.9 78 0.0 29 17 16.1 101.62     LegendNANA
12:00 14.8 11.1 78 0.0 28 18 16.1 101.61     LegendNANA
13:00 15.3 11.2 77 0.0 28 18 16.1 101.62     LegendNANA
14:00 15.2 11.8 80 0.0 29 17 16.1 101.61     LegendNANA
15:00 16.1 12.5 79 0.0 27 15 16.1 101.61     LegendNANA
16:00 14.3 11.5 83 0.0 28 15 16.1 101.58     LegendNANA
17:00 13.3 11.4 88 0.0 30 13 16.1 101.58     LegendNANA
18:00 12.9 11.2 89 0.0 27 17 16.1 101.55     LegendNANA
19:00 12.8 11.2 90 0.0 27 13 16.1 101.54     LegendNANA
20:00 12.1 10.9 92 0.0 28 11 14.5 101.53     LegendNANA
21:00 11.9 11.0 94 0.0 25 9 12.9 101.51     LegendNANA
22:00 11.6 11.0 96 0.0 LegendMM 4 4.8 101.49     Fog
23:00 11.4 10.8 96 0.0 LegendMM 4 2.4 101.47     Fog

Notes on Data Quality.

Legend

  • E = Estimated
  • M = Missing
  • NA = Not Available*
  • [empty] = Indicates an unobserved value
Date modified: